"startDT [UTC]","vpos","CH4 [ppm]","stdev(CH4) [ppm]","CO2 [ppm]","stdev(CO2) [ppm]","H2O_reported [%]","stdev(H2O_reported)","CavityPressure [torr]","CavityTemp [C]","OutletValve","CH4_dry [ppm]","CO2_dry [ppm]","DasTemp [C]","EtalonTemp [C]","WarmBoxTemp [C]","MPVPosition","T_ECpre [C]","T_EC1 [C]","T_EC2 [C]","p_inlet [hPa]","p_in [hPa]","p_out [hPa]","T_inlet [C]","RH_inlet [%]","dwpt_inlet [C]","T_vent [C]","RH_vent [%]","dwpt_vent [C]","flow_vent [l min-1]","flow_inlet [l min-1]","dwpt_sample [C]","T_room [C]"
2015-04-12 00:00:00,0.0,1.91087,0.00029,403.861,0.024,0.2181,0.0016,139.999,44.999,34269.05875,1.91500,404.926,34.315,45.067,45.000,0.00,0.09,-272.72,-272.78,-4,970,-4,22.8,5.9,-16.9,22.5,6.1,-16.7,5.73,1.96,-13.2,27.0
2015-04-12 00:01:00,0.0,1.91098,0.00036,403.901,0.031,0.2151,0.0027,139.997,44.999,34267.17799,1.91503,404.952,34.225,45.067,45.000,0.00,0.09,-272.72,-272.78,-4,972,-4,22.8,5.8,-17.0,22.5,6.0,-16.9,5.73,1.96,-13.2,27.1
2015-04-12 00:02:00,0.0,1.91093,0.00033,403.863,0.036,0.2215,0.0022,140.000,44.999,34270.35211,1.91513,404.944,34.103,45.067,45.000,0.00,0.09,-272.72,-272.77,-4,972,-4,22.8,6.0,-16.7,22.5,6.1,-16.7,5.73,1.97,-13.2,26.9
2015-04-12 00:03:00,0.0,1.91095,0.00038,403.870,0.038,0.2274,0.0023,139.998,44.998,34270.14270,1.91527,404.981,34.002,45.067,45.000,0.00,0.09,-272.72,-272.78,-5,974,-4,22.8,6.1,-16.4,22.5,6.3,-16.3,5.73,1.97,-13.2,26.8
2015-04-12 00:04:00,0.0,1.91070,0.00033,403.849,0.040,0.2239,0.0026,140.003,44.998,34274.64242,1.91493,404.942,33.854,45.067,45.000,0.00,0.09,-272.72,-272.78,-5,975,-4,22.8,6.1,-16.6,22.5,6.3,-16.3,5.73,1.99,-13.2,26.8
2015-04-12 00:05:00,0.0,1.91066,0.00045,403.871,0.024,0.2202,0.0014,140.000,44.998,34274.34123,1.91480,404.948,33.706,45.067,45.000,0.00,0.09,-272.71,-272.77,-5,977,-4,22.8,6.0,-16.7,22.5,6.2,-16.6,5.73,2.02,-13.2,26.8
2015-04-12 00:06:00,0.0,1.91083,0.00025,403.887,0.020,0.2202,0.0022,139.998,44.998,34274.97228,1.91502,404.962,33.554,45.067,45.000,0.00,0.09,-272.72,-272.77,-5,977,-4,22.8,5.9,-16.8,22.5,6.1,-16.6,5.73,2.02,-13.2,26.8
2015-04-12 00:07:00,0.0,1.91088,0.00038,403.884,0.037,0.2240,0.0017,140.002,44.998,34274.57975,1.91511,404.978,33.391,45.068,45.000,0.00,0.09,-272.72,-272.78,-5,978,-3,22.8,6.1,-16.6,22.5,6.2,-16.5,5.73,1.97,-13.2,26.8
2015-04-12 00:08:00,0.0,1.91062,0.00035,403.854,0.028,0.2258,0.0017,139.999,44.998,34274.98273,1.91491,404.957,33.236,45.068,45.000,0.00,0.09,-272.71,-272.78,-5,979,-3,22.7,6.1,-16.5,22.5,6.3,-16.4,5.73,1.93,-13.2,26.8
2015-04-12 00:09:00,0.0,1.91060,0.00037,403.828,0.042,0.2248,0.0017,140.002,44.998,34273.04639,1.91482,404.925,33.106,45.068,45.001,0.00,0.09,-272.71,-272.77,-5,979,-4,22.7,6.1,-16.5,22.5,6.3,-16.4,5.73,1.92,-13.2,26.8
2015-04-12 00:10:00,0.0,1.91084,0.00039,403.859,0.039,0.2246,0.0019,140.000,44.998,34268.97229,1.91508,404.958,32.994,45.068,45.001,0.00,0.09,-272.72,-272.78,-4,980,0,22.7,6.1,-16.6,22.5,6.2,-16.4,5.73,1.95,-13.2,26.8
2015-04-12 00:11:00,0.0,1.91070,0.00040,403.814,0.037,0.2240,0.0029,139.998,44.998,34266.61541,1.91497,404.907,32.907,45.068,45.001,0.00,0.09,-272.72,-272.78,-6,980,-3,22.6,6.1,-16.6,22.5,6.3,-16.4,5.73,2.00,-13.2,26.8
2015-04-12 00:12:00,0.0,1.91046,0.00033,403.852,0.034,0.2229,0.0018,140.000,44.998,34262.68785,1.91465,404.941,32.829,45.068,45.001,0.00,0.09,-272.71,-272.77,-6,980,-3,22.7,6.0,-16.7,22.4,6.2,-16.5,5.73,2.02,-13.2,26.8
2015-04-12 00:13:00,0.0,1.91063,0.00032,403.849,0.027,0.2230,0.0019,139.998,44.999,34258.65384,1.91485,404.937,32.809,45.068,45.000,0.00,0.09,-272.72,-272.78,-5,980,-3,22.6,6.1,-16.7,22.4,6.2,-16.5,5.73,2.01,-13.2,26.7
2015-04-12 00:14:00,0.0,1.91081,0.00038,403.837,0.036,0.2248,0.0018,139.999,44.999,34254.36048,1.91507,404.935,32.813,45.068,45.000,0.00,0.09,-272.73,-272.78,-5,980,-3,22.6,6.1,-16.6,22.4,6.3,-16.4,5.73,1.98,-13.2,26.8
2015-04-12 00:15:00,0.0,1.91067,0.00038,403.866,0.030,0.2201,0.0025,139.998,44.999,34253.59040,1.91482,404.940,32.813,45.068,45.000,0.00,0.09,-272.72,-272.77,-6,979,-2,22.6,6.0,-16.8,22.4,6.2,-16.6,5.73,1.98,-13.2,26.8
2015-04-12 00:16:00,0.0,1.91089,0.00040,403.834,0.034,0.2258,0.0015,140.000,45.000,34250.77775,1.91515,404.936,32.832,45.068,45.000,0.00,0.09,-272.72,-272.78,-5,979,-3,22.6,6.1,-16.6,22.3,6.3,-16.5,5.73,1.97,-13.2,26.7
2015-04-12 00:17:00,0.0,1.91059,0.00047,403.821,0.020,0.2248,0.0021,140.001,45.000,34250.72852,1.91489,404.919,32.886,45.068,45.000,0.00,0.09,-272.73,-272.78,-5,979,-3,22.5,6.1,-16.6,22.3,6.3,-16.4,5.73,1.97,-13.2,26.7
2015-04-12 00:18:00,0.0,1.91046,0.00044,403.839,0.038,0.2208,0.0047,139.997,45.001,34247.41936,1.91459,404.917,32.944,45.068,45.000,0.00,0.09,-272.72,-272.78,-5,978,-3,22.5,6.0,-16.8,22.3,6.3,-16.5,5.73,1.98,-13.2,26.7
2015-04-12 00:19:00,0.0,1.91068,0.00028,403.895,0.020,0.2139,0.0028,139.994,45.001,34246.52892,1.91472,404.939,33.002,45.068,45.000,0.00,0.09,-272.72,-272.77,-5,977,-3,22.5,5.9,-17.2,22.3,6.0,-16.9,5.73,1.96,-13.2,26.7
2015-04-12 00:20:00,0.0,1.91074,0.00054,403.874,0.033,0.2179,0.0021,140.000,45.001,34247.67408,1.91488,404.938,33.084,45.068,45.000,0.00,0.09,-272.72,-272.78,-5,977,-3,22.5,5.9,-17.0,22.3,6.1,-16.8,5.73,1.94,-13.2,26.8
2015-04-12 00:21:00,0.0,1.91088,0.00036,403.863,0.033,0.2189,0.0017,140.001,45.001,34245.86272,1.91502,404.932,33.216,45.069,45.001,0.00,0.09,-272.72,-272.77,-4,976,-3,22.6,6.0,-16.9,22.3,6.1,-16.8,5.73,1.93,-13.2,26.8
2015-04-12 00:22:00,0.0,1.91085,0.00042,403.844,0.032,0.2218,0.0027,140.000,45.002,34246.70220,1.91503,404.927,33.370,45.069,45.002,0.00,0.09,-272.72,-272.77,-4,975,-3,22.6,6.1,-16.7,22.4,6.2,-16.6,5.73,1.96,-13.2,26.9
2015-04-12 00:23:00,0.0,1.91039,0.00037,403.827,0.022,0.2209,0.0027,139.995,45.003,34248.07208,1.91458,404.906,33.549,45.070,45.002,0.00,0.09,-272.72,-272.78,-5,974,-3,22.6,6.0,-16.8,22.4,6.2,-16.6,5.73,2.02,-13.2,27.0
2015-04-12 00:24:00,0.0,1.91079,0.00039,403.845,0.023,0.2183,0.0018,140.004,45.003,34250.85969,1.91492,404.912,33.713,45.070,45.002,0.00,0.09,-272.72,-272.79,-5,974,-3,22.7,5.9,-16.9,22.4,6.1,-16.7,5.73,2.03,-13.2,27.1
2015-04-12 00:25:00,0.0,1.91070,0.00035,403.864,0.033,0.2175,0.0026,140.001,45.003,34252.07667,1.91482,404.926,33.894,45.070,45.002,0.00,0.09,-272.71,-272.77,-5,973,-3,22.7,5.9,-16.9,22.5,6.0,-16.8,5.73,1.94,-13.3,27.1
2015-04-12 00:26:00,0.0,1.91052,0.00031,403.817,0.035,0.2173,0.0023,139.999,45.003,34257.49728,1.91463,404.880,34.071,45.069,45.002,0.00,0.09,-272.72,-272.78,-4,971,-3,22.8,5.9,-16.8,22.5,6.1,-16.7,5.73,1.92,-13.2,27.2
2015-04-12 00:27:00,0.0,1.91050,0.00041,403.831,0.035,0.2150,0.0026,140.001,45.003,34261.00498,1.91454,404.881,34.200,45.069,45.001,0.00,0.09,-272.72,-272.78,-4,971,-3,22.8,5.8,-17.0,22.5,6.0,-16.9,5.73,2.00,-13.2,27.2
2015-04-12 00:28:00,0.0,1.91036,0.00042,403.809,0.032,0.2237,0.0024,140.000,45.002,34260.28321,1.91460,404.900,34.287,45.068,44.999,0.00,0.09,-272.72,-272.77,-3,971,-3,22.7,6.1,-16.6,22.5,6.2,-16.5,5.73,2.03,-13.2,27.2
2015-04-12 00:29:00,0.0,1.91055,0.00051,403.808,0.034,0.2218,0.0016,140.000,45.002,34261.53110,1.91473,404.892,34.365,45.066,44.998,0.00,0.09,-272.72,-272.77,-3,971,-4,22.7,6.0,-16.6,22.5,6.2,-16.4,5.73,1.99,-13.2,27.2
2015-04-12 00:30:00,0.0,1.91063,0.00032,403.811,0.037,0.2222,0.0015,139.998,45.001,34260.64783,1.91484,404.896,34.388,45.066,44.998,0.00,0.09,-272.72,-272.78,-4,970,-4,22.7,6.0,-16.6,22.5,6.2,-16.5,5.73,1.93,-13.2,27.3
2015-04-12 00:31:00,0.0,1.91056,0.00033,403.835,0.050,0.2197,0.0038,140.000,45.000,34259.62959,1.91472,404.908,34.394,45.065,44.997,0.00,0.09,-272.72,-272.78,-4,969,-4,22.7,6.0,-16.8,22.5,6.2,-16.5,5.73,1.92,-13.2,27.3
2015-04-12 00:32:00,0.0,1.91087,0.00035,403.851,0.025,0.2152,0.0023,140.003,45.000,34260.61032,1.91494,404.902,34.375,45.065,44.998,0.00,0.09,-272.71,-272.77,-4,969,-3,22.7,5.8,-17.1,22.5,6.0,-16.8,5.73,1.95,-13.2,27.3
2015-04-12 00:33:00,0.0,1.91081,0.00027,403.876,0.031,0.2089,0.0017,140.000,45.000,34257.23146,1.91476,404.896,34.351,45.065,44.998,0.00,0.09,-272.72,-272.77,-4,971,-4,22.7,5.7,-17.4,22.5,5.9,-17.1,5.73,1.98,-13.2,27.2
2015-04-12 00:34:00,0.0,1.91079,0.00034,403.871,0.026,0.2114,0.0029,140.002,44.999,34256.13550,1.91475,404.903,34.288,45.066,44.998,0.00,0.09,-272.73,-272.78,-3,971,-2,22.7,5.7,-17.3,22.5,5.8,-17.2,5.73,2.00,-13.2,27.1
2015-04-12 00:35:00,0.0,1.91067,0.00054,403.814,0.039,0.2214,0.0030,140.000,44.999,34257.57035,1.91489,404.893,34.216,45.066,44.999,0.00,0.09,-272.71,-272.78,-4,971,-4,22.7,6.0,-16.8,22.5,6.1,-16.8,5.73,2.00,-13.2,27.1
2015-04-12 00:36:00,0.0,1.91045,0.00036,403.803,0.026,0.2246,0.0015,139.995,44.999,34256.68911,1.91470,404.900,34.125,45.067,44.999,0.00,0.09,-272.71,-272.77,-4,971,-4,22.7,6.1,-16.6,22.5,6.2,-16.5,5.73,1.99,-13.2,27.1
2015-04-12 00:37:00,0.0,1.91034,0.00047,403.812,0.032,0.2217,0.0033,139.998,44.999,34260.13243,1.91451,404.896,34.012,45.067,45.000,0.00,0.09,-272.72,-272.78,-4,972,-3,22.7,6.0,-16.6,22.5,6.2,-16.5,5.73,1.97,-13.2,27.0
2015-04-12 00:38:00,0.0,1.91029,0.00044,403.817,0.034,0.2199,0.0019,140.002,44.999,34262.60778,1.91444,404.890,33.929,45.068,45.001,0.00,0.09,-272.72,-272.78,-4,972,-4,22.8,5.9,-16.8,22.5,6.1,-16.6,5.73,1.97,-13.2,27.0
2015-04-12 00:39:00,0.0,1.91050,0.00035,403.816,0.042,0.2226,0.0024,139.999,44.999,34263.39032,1.91474,404.903,33.854,45.068,45.001,0.00,0.09,-272.71,-272.77,-4,973,-4,22.8,6.0,-16.6,22.5,6.2,-16.5,5.73,1.98,-13.2,26.8
2015-04-12 00:40:00,0.0,1.91046,0.00026,403.775,0.036,0.2288,0.0015,140.002,44.999,34266.20867,1.91478,404.893,33.746,45.068,45.000,0.00,0.09,-272.71,-272.78,-5,975,-4,22.8,6.2,-16.3,22.5,6.3,-16.2,5.73,1.95,-13.1,26.8
2015-04-12 00:41:00,0.0,1.91027,0.00029,403.782,0.028,0.2257,0.0036,140.003,44.998,34268.31297,1.91454,404.885,33.615,45.068,45.000,0.00,0.09,-272.72,-272.78,-5,977,-3,22.8,6.1,-16.5,22.5,6.3,-16.2,5.73,1.92,-13.2,26.6
2015-04-12 00:42:00,0.0,1.91028,0.00028,403.807,0.021,0.2217,0.0025,140.001,44.998,34268.43492,1.91448,404.889,33.497,45.068,45.000,0.00,0.09,-272.72,-272.77,-5,978,-3,22.7,6.0,-16.7,22.5,6.2,-16.5,5.73,1.93,-13.1,26.6
2015-04-12 00:43:00,0.0,1.91030,0.00029,403.764,0.027,0.2280,0.0030,139.999,44.998,34267.26901,1.91462,404.877,33.365,45.068,45.000,0.00,0.09,-272.72,-272.77,-6,979,-3,22.7,6.1,-16.4,22.5,6.3,-16.3,5.73,1.98,-13.1,26.6
2015-04-12 00:44:00,0.0,1.91033,0.00027,403.795,0.025,0.2248,0.0024,140.003,44.998,34263.58409,1.91456,404.893,33.213,45.068,45.000,0.00,0.09,-272.72,-272.78,-6,979,-3,22.7,6.1,-16.5,22.5,6.3,-16.3,5.73,2.01,-13.1,26.6
2015-04-12 00:45:00,0.0,1.91044,0.00031,403.793,0.021,0.2240,0.0018,140.001,44.998,34263.83634,1.91468,404.885,33.084,45.068,45.000,0.00,0.09,-272.72,-272.77,-5,978,-3,22.7,6.1,-16.6,22.4,6.3,-16.4,5.73,2.03,-13.1,26.7
2015-04-12 00:46:00,0.0,1.91002,0.00026,403.764,0.034,0.2257,0.0024,139.999,44.998,34263.82755,1.91430,404.868,32.967,45.068,45.000,0.00,0.09,-272.72,-272.77,-5,979,-4,22.7,6.1,-16.5,22.4,6.3,-16.4,5.73,1.99,-13.1,26.7
2015-04-12 00:47:00,0.0,1.91002,0.00031,403.758,0.026,0.2235,0.0017,139.998,44.998,34261.53797,1.91426,404.848,32.894,45.068,45.001,0.00,0.09,-272.72,-272.77,-6,980,-3,22.6,6.1,-16.6,22.4,6.2,-16.5,5.73,1.95,-13.1,26.7
2015-04-12 00:48:00,0.0,1.91031,0.00029,403.754,0.031,0.2269,0.0037,139.997,44.999,34256.26841,1.91455,404.861,32.823,45.068,45.000,0.00,0.09,-272.72,-272.78,-6,980,-3,22.6,6.2,-16.5,22.4,6.3,-16.4,5.73,1.92,-13.1,26.8
2015-04-12 00:49:00,0.0,1.91032,0.00049,403.776,0.033,0.2259,0.0022,139.999,44.999,34253.10900,1.91461,404.881,32.770,45.068,45.000,0.00,0.09,-272.71,-272.77,-6,980,-4,22.6,6.2,-16.5,22.4,6.3,-16.3,5.73,1.93,-13.1,26.8
2015-04-12 00:50:00,0.0,1.91002,0.00040,403.766,0.031,0.2258,0.0020,139.998,44.999,34251.84606,1.91432,404.867,32.750,45.068,45.000,0.00,0.09,-272.71,-272.77,-5,980,-3,22.6,6.1,-16.5,22.4,6.3,-16.4,5.73,1.97,-13.1,26.7
2015-04-12 00:51:00,0.0,1.91019,0.00033,403.747,0.033,0.2274,0.0027,140.001,44.999,34250.09221,1.91446,404.857,32.758,45.068,45.000,0.00,0.09,-272.72,-272.78,-5,980,-4,22.6,6.2,-16.4,22.3,6.4,-16.3,5.73,1.98,-13.1,26.8
2015-04-12 00:52:00,0.0,1.91039,0.00042,403.776,0.024,0.2253,0.0026,139.998,44.999,34244.85270,1.91465,404.876,32.805,45.068,45.000,0.00,0.09,-272.71,-272.78,-6,979,-3,22.6,6.2,-16.5,22.3,6.3,-16.4,5.73,1.98,-13.1,26.7
2015-04-12 00:53:00,0.0,1.91050,0.00050,403.796,0.043,0.2197,0.0059,140.000,45.000,34244.01826,1.91463,404.868,32.834,45.068,45.000,0.00,0.09,-272.72,-272.78,-6,979,-3,22.5,6.0,-16.9,22.3,6.2,-16.6,5.73,1.97,-13.1,26.7
2015-04-12 00:54:00,0.0,1.91048,0.00031,403.818,0.041,0.2158,0.0022,140.001,45.000,34242.19461,1.91454,404.874,32.881,45.068,45.000,0.00,0.09,-272.72,-272.78,-5,978,-3,22.5,5.9,-17.1,22.3,6.0,-16.9,5.73,1.97,-13.1,26.7
2015-04-12 00:55:00,0.0,1.91035,0.00044,403.773,0.029,0.2241,0.0035,140.000,45.000,34239.55148,1.91463,404.867,32.944,45.068,45.000,0.00,0.09,-272.73,-272.77,-5,978,-3,22.5,6.1,-16.7,22.3,6.2,-16.6,5.73,1.96,-13.2,26.6
2015-04-12 00:56:00,0.0,1.91039,0.00038,403.812,0.038,0.2228,0.0033,140.000,45.001,34238.71672,1.91461,404.899,33.026,45.068,45.000,0.00,0.09,-272.72,-272.77,-5,976,-3,22.5,6.1,-16.7,22.3,6.2,-16.6,5.73,1.98,-13.2,26.7
2015-04-12 00:57:00,0.0,1.91029,0.00047,403.756,0.026,0.2287,0.0038,139.998,45.001,34237.66895,1.91460,404.873,33.131,45.068,45.000,0.00,0.09,-272.73,-272.78,-5,977,-3,22.5,6.3,-16.4,22.3,6.4,-16.2,5.73,2.00,-13.2,26.7
2015-04-12 00:58:00,0.0,1.91077,0.00039,403.815,0.047,0.2152,0.0051,140.002,45.001,34240.43688,1.91481,404.865,33.221,45.068,45.000,0.00,0.09,-272.72,-272.77,-5,976,-3,22.6,5.9,-17.0,22.3,6.2,-16.7,5.73,2.02,-13.2,26.8
2015-04-12 00:59:00,0.0,1.91082,0.00037,403.839,0.031,0.2110,0.0024,139.999,45.002,34241.88605,1.91485,404.870,33.340,45.068,45.001,0.00,0.09,-272.72,-272.77,-4,974,-3,22.6,5.8,-17.3,22.4,5.9,-17.1,5.73,2.00,-13.2,26.9
2015-04-12 01:00:00,0.0,1.91048,0.00032,403.795,0.029,0.2219,0.0041,140.001,45.002,34244.18708,1.91465,404.877,33.471,45.069,45.001,0.00,0.09,-272.72,-272.77,-4,975,-3,22.7,6.0,-16.7,22.4,6.1,-16.7,5.73,1.95,-13.2,27.0
2015-04-12 01:01:00,0.0,1.91043,0.00036,403.767,0.023,0.2291,0.0049,140.000,45.002,34242.79751,1.91475,404.887,33.583,45.069,45.001,0.00,0.09,-272.72,-272.78,-4,974,-3,22.7,6.2,-16.3,22.4,6.4,-16.2,5.73,1.91,-13.2,27.0
2015-04-12 01:02:00,0.0,1.91040,0.00035,403.781,0.020,0.2233,0.0022,139.999,45.002,34243.33264,1.91463,404.871,33.675,45.069,45.001,0.00,0.09,-272.72,-272.78,-4,973,-3,22.7,6.1,-16.5,22.4,6.3,-16.4,5.73,1.94,-13.2,27.0
2015-04-12 01:03:00,0.0,1.91057,0.00043,403.777,0.045,0.2252,0.0038,140.001,45.002,34244.78574,1.91485,404.876,33.755,45.068,45.000,0.00,0.09,-272.71,-272.77,-3,973,-3,22.7,6.2,-16.5,22.4,6.3,-16.4,5.73,2.00,-13.2,27.0
2015-04-12 01:04:00,0.0,1.91068,0.00041,403.769,0.025,0.2303,0.0016,139.998,45.002,34241.92411,1.91502,404.893,33.817,45.067,44.999,0.00,0.09,-272.72,-272.78,-4,971,-3,22.7,6.3,-16.2,22.4,6.4,-16.1,5.73,2.02,-13.2,27.1
2015-04-12 01:05:00,0.0,1.91050,0.00027,403.770,0.040,0.2253,0.0043,140.001,45.001,34244.91823,1.91476,404.871,33.860,45.067,44.999,0.00,0.09,-272.72,-272.78,-5,971,-3,22.7,6.2,-16.4,22.4,6.4,-16.2,5.73,2.01,-13.2,27.1
2015-04-12 01:06:00,0.0,1.91068,0.00037,403.787,0.025,0.2195,0.0035,139.999,45.000,34246.12659,1.91482,404.859,33.875,45.066,44.998,0.00,0.09,-272.71,-272.78,-5,973,-3,22.7,6.0,-16.8,22.4,6.2,-16.6,5.73,1.97,-13.2,27.1
2015-04-12 01:07:00,0.0,1.91045,0.00036,403.819,0.033,0.2165,0.0029,139.999,45.000,34248.88266,1.91455,404.874,33.875,45.066,44.998,0.00,0.09,-272.72,-272.78,-4,972,-4,22.6,5.9,-17.0,22.4,6.0,-16.9,5.73,1.94,-13.1,26.9
2015-04-12 01:08:00,0.0,1.91033,0.00025,403.748,0.042,0.2247,0.0039,139.997,45.000,34246.40864,1.91457,404.847,33.868,45.066,44.998,0.00,0.09,-272.73,-272.78,-5,971,-2,22.6,6.1,-16.6,22.4,6.2,-16.5,5.73,1.94,-13.1,26.9
2015-04-12 01:09:00,0.0,1.90999,0.00040,403.723,0.024,0.2276,0.0014,140.000,44.999,34247.59596,1.91431,404.835,33.817,45.066,44.999,0.00,0.09,-272.71,-272.77,-5,973,-4,22.6,6.2,-16.4,22.4,6.4,-16.2,5.73,1.95,-13.1,26.9
2015-04-12 01:10:00,0.0,1.91025,0.00036,403.745,0.025,0.2287,0.0024,139.998,44.999,34244.67644,1.91455,404.861,33.774,45.067,44.999,0.00,0.09,-272.72,-272.77,-4,973,-4,22.6,6.2,-16.4,22.4,6.4,-16.2,5.73,1.95,-13.1,26.8
2015-04-12 01:11:00,0.0,1.91011,0.00050,403.713,0.035,0.2318,0.0021,139.999,44.999,34246.97596,1.91451,404.845,33.715,45.067,45.000,0.00,0.09,-272.73,-272.77,-5,972,-3,22.6,6.3,-16.2,22.4,6.4,-16.1,5.73,1.97,-13.1,26.8
2015-04-12 01:12:00,0.0,1.91020,0.00030,403.727,0.026,0.2312,0.0056,139.998,44.999,34246.80172,1.91455,404.858,33.639,45.067,45.000,0.00,0.09,-272.72,-272.77,-5,974,-3,22.7,6.3,-16.2,22.4,6.5,-16.0,5.73,1.97,-13.1,26.9
2015-04-12 01:13:00,0.0,1.91011,0.00028,403.721,0.033,0.2300,0.0024,140.002,44.999,34248.76004,1.91449,404.842,33.532,45.068,45.000,0.00,0.09,-272.72,-272.77,-5,974,-3,22.7,6.3,-16.2,22.4,6.4,-16.1,5.73,1.97,-13.1,26.8
2015-04-12 01:14:00,0.0,1.91018,0.00042,403.713,0.033,0.2288,0.0040,139.999,44.999,34250.22129,1.91448,404.833,33.420,45.068,45.000,0.00,0.09,-272.72,-272.78,-5,975,-3,22.7,6.2,-16.3,22.4,6.4,-16.1,5.73,1.98,-13.1,26.7
2015-04-12 01:15:00,0.0,1.91038,0.00026,403.781,0.032,0.2162,0.0024,140.002,44.999,34254.85667,1.91444,404.834,33.294,45.068,45.001,0.00,0.09,-272.72,-272.78,-5,977,-3,22.6,5.9,-17.0,22.4,6.1,-16.7,5.73,2.01,-13.1,26.7
2015-04-12 01:16:00,0.0,1.91044,0.00045,403.716,0.028,0.2279,0.0060,140.000,44.998,34252.80036,1.91475,404.828,33.178,45.068,45.000,0.00,0.09,-272.71,-272.77,-6,977,-3,22.7,6.2,-16.4,22.4,6.3,-16.5,5.73,2.01,-13.1,26.7
2015-04-12 01:17:00,0.0,1.91003,0.00035,403.734,0.034,0.2292,0.0040,140.002,44.998,34252.80978,1.91440,404.855,33.075,45.068,45.001,0.00,0.09,-272.72,-272.78,-6,978,-4,22.6,6.3,-16.3,22.4,6.4,-16.1,5.73,1.99,-13.1,26.7
2015-04-12 01:18:00,0.0,1.91027,0.00037,403.749,0.033,0.2244,0.0017,139.999,44.998,34249.70659,1.91449,404.844,32.995,45.068,45.001,0.00,0.09,-272.72,-272.78,-5,979,-3,22.6,6.1,-16.6,22.4,6.3,-16.4,5.73,1.96,-13.1,26.7
2015-04-12 01:19:00,0.0,1.91034,0.00024,403.732,0.031,0.2262,0.0043,140.000,44.999,34248.83710,1.91461,404.835,32.920,45.068,45.001,0.00,0.09,-272.71,-272.77,-6,978,-4,22.6,6.2,-16.5,22.4,6.3,-16.4,5.73,1.93,-13.1,26.7
2015-04-12 01:20:00,0.0,1.91021,0.00036,403.705,0.024,0.2367,0.0029,139.997,44.999,34244.42398,1.91469,404.860,32.851,45.068,45.000,0.00,0.09,-272.72,-272.77,-6,979,-4,22.6,6.4,-16.0,22.3,6.5,-16.0,5.73,1.93,-13.1,26.8
2015-04-12 01:21:00,0.0,1.91018,0.00032,403.705,0.033,0.2356,0.0018,140.002,44.999,34243.14573,1.91464,404.857,32.807,45.068,45.000,0.00,0.09,-272.72,-272.79,-6,979,-3,22.6,6.4,-16.0,22.3,6.6,-15.8,5.73,1.95,-12.3,26.7
2015-04-12 01:22:00,0.0,1.90997,0.00031,403.696,0.030,0.2328,0.0015,139.999,44.999,34241.10637,1.91440,404.833,32.759,45.068,45.000,0.00,0.09,-272.72,-272.77,-6,979,-3,22.5,6.4,-16.2,22.3,6.6,-15.9,5.73,1.98,-12.1,26.7
2015-04-12 01:23:00,0.0,1.91019,0.00045,403.725,0.032,0.2253,0.0033,139.998,44.999,34239.19011,1.91442,404.825,32.727,45.068,45.000,0.00,0.09,-272.72,-272.77,-5,980,-3,22.5,6.2,-16.5,22.3,6.4,-16.3,5.73,2.00,-12.2,26.7
2015-04-12 01:24:00,0.0,1.90997,0.00033,403.708,0.022,0.2355,0.0027,139.999,44.999,34235.62068,1.91442,404.858,32.688,45.067,45.000,0.00,0.09,-272.73,-272.78,-5,979,-3,22.5,6.4,-16.1,22.3,6.5,-16.0,5.73,2.01,-12.3,26.7
2015-04-12 01:25:00,0.0,1.91041,0.00040,403.733,0.028,0.2309,0.0025,139.999,44.999,34231.26899,1.91480,404.861,32.689,45.068,45.000,0.00,0.09,-272.73,-272.78,-6,979,-4,22.5,6.3,-16.2,22.3,6.5,-16.1,5.73,1.99,-12.4,26.7
2015-04-12 01:26:00,0.0,1.91051,0.00045,403.788,0.029,0.2202,0.0024,140.001,45.000,34232.65683,1.91466,404.865,32.720,45.068,45.000,0.00,0.09,-272.72,-272.77,-5,979,-3,22.5,6.1,-16.7,22.3,6.3,-16.5,5.73,1.98,-12.4,26.7
2015-04-12 01:27:00,0.0,1.91036,0.00039,403.750,0.035,0.2276,0.0041,140.001,45.000,34230.15654,1.91470,404.861,32.767,45.068,45.000,0.00,0.09,-272.72,-272.77,-5,978,-3,22.5,6.2,-16.5,22.3,6.3,-16.4,5.73,1.97,-12.5,26.7
2015-04-12 01:28:00,0.0,1.91006,0.00032,403.729,0.038,0.2311,0.0033,139.999,45.000,34231.16425,1.91441,404.856,32.834,45.068,45.000,0.00,0.09,-272.72,-272.78,-5,978,-3,22.5,6.3,-16.3,22.3,6.5,-16.1,5.73,1.96,-12.5,26.6
2015-04-12 01:29:00,0.0,1.91022,0.00048,403.736,0.032,0.2269,0.0019,140.001,45.000,34231.82195,1.91448,404.844,32.915,45.068,45.000,0.00,0.09,-272.72,-272.78,-5,977,-3,22.5,6.2,-16.5,22.3,6.4,-16.3,5.73,1.95,-12.6,26.6
2015-04-12 01:30:00,0.0,1.90996,0.00030,403.712,0.029,0.2284,0.0036,140.000,45.001,34233.48553,1.91431,404.827,33.007,45.068,45.000,0.00,0.09,-272.72,-272.78,-5,977,-3,22.5,6.3,-16.3,22.3,6.4,-16.2,5.73,1.94,-12.6,26.6
2015-04-12 01:31:00,0.0,1.90995,0.00027,403.687,0.032,0.2343,0.0026,140.001,45.001,34233.73101,1.91438,404.831,33.108,45.068,45.000,0.00,0.09,-272.72,-272.78,-5,976,-3,22.5,6.4,-16.1,22.3,6.6,-16.0,5.73,1.95,-12.6,26.7
2015-04-12 01:32:00,0.0,1.91006,0.00046,403.736,0.040,0.2288,0.0045,140.002,45.002,34231.39570,1.91437,404.853,33.236,45.069,45.001,0.00,0.09,-272.72,-272.78,-5,974,-3,22.5,6.3,-16.3,22.3,6.5,-16.1,5.73,2.00,-12.7,26.8
2015-04-12 01:33:00,0.0,1.91013,0.00035,403.734,0.037,0.2267,0.0020,139.999,45.002,34233.12829,1.91444,404.840,33.368,45.069,45.001,0.00,0.09,-272.72,-272.77,-5,973,-3,22.6,6.2,-16.5,22.3,6.4,-16.3,5.73,2.04,-12.7,26.8
2015-04-12 01:34:00,0.0,1.91008,0.00041,403.710,0.030,0.2263,0.0024,139.999,45.002,34236.09402,1.91435,404.818,33.469,45.069,45.001,0.00,0.09,-272.72,-272.78,-4,973,-3,22.6,6.2,-16.5,22.3,6.3,-16.3,5.73,2.00,-12.7,26.9
2015-04-12 01:35:00,0.0,1.91014,0.00038,403.720,0.034,0.2270,0.0036,139.998,45.002,34237.15510,1.91441,404.825,33.577,45.069,45.001,0.00,0.09,-272.72,-272.78,-4,972,-3,22.6,6.2,-16.4,22.3,6.4,-16.3,5.73,1.95,-12.7,26.9
2015-04-12 01:36:00,0.0,1.91004,0.00033,403.709,0.027,0.2275,0.0019,139.998,45.002,34236.60064,1.91435,404.822,33.650,45.068,45.000,0.00,0.09,-272.72,-272.77,-4,972,-3,22.6,6.2,-16.3,22.3,6.4,-16.2,5.73,1.93,-12.8,27.0
2015-04-12 01:37:00,0.0,1.91012,0.00045,403.729,0.029,0.2283,0.0013,139.998,45.001,34236.66912,1.91445,404.842,33.688,45.067,44.999,0.00,0.09,-272.72,-272.77,-5,973,-3,22.5,6.2,-16.4,22.3,6.4,-16.2,5.73,1.94,-12.8,27.0
2015-04-12 01:38:00,0.0,1.91023,0.00028,403.704,0.044,0.2335,0.0024,140.000,45.001,34235.96256,1.91460,404.845,33.706,45.067,44.999,0.00,0.09,-272.72,-272.78,-4,972,-3,22.6,6.4,-16.1,22.3,6.5,-16.0,5.73,1.97,-12.8,26.9
2015-04-12 01:39:00,0.0,1.91020,0.00034,403.697,0.027,0.2342,0.0021,140.002,45.000,34235.92543,1.91467,404.843,33.705,45.066,44.999,0.00,0.09,-272.72,-272.77,-3,973,-3,22.6,6.4,-16.0,22.3,6.6,-15.9,5.73,2.00,-12.8,26.9
2015-04-12 01:40:00,0.0,1.90988,0.00034,403.676,0.045,0.2366,0.0027,139.996,45.000,34237.53625,1.91436,404.831,33.688,45.067,44.999,0.00,0.09,-272.72,-272.77,-4,971,-3,22.5,6.5,-15.9,22.3,6.6,-15.9,5.73,2.01,-12.8,26.8
2015-04-12 01:41:00,0.0,1.91009,0.00022,403.674,0.033,0.2378,0.0018,140.001,45.000,34237.22738,1.91457,404.834,33.687,45.067,44.999,0.00,0.09,-272.72,-272.78,-4,971,-3,22.5,6.5,-15.9,22.3,6.7,-15.7,5.73,2.00,-12.8,26.9
2015-04-12 01:42:00,0.0,1.91012,0.00040,403.670,0.025,0.2363,0.0017,139.998,45.000,34237.17679,1.91458,404.824,33.672,45.067,44.999,0.00,0.09,-272.72,-272.78,-4,972,-3,22.6,6.5,-15.9,22.3,6.7,-15.8,5.73,1.98,-12.8,26.8
2015-04-12 01:43:00,0.0,1.90987,0.00035,403.683,0.032,0.2375,0.0029,139.999,45.000,34237.87853,1.91440,404.844,33.630,45.067,45.000,0.00,0.09,-272.71,-272.77,-4,972,-3,22.6,6.5,-15.9,22.3,6.7,-15.7,5.73,1.96,-12.8,26.8
2015-04-12 01:44:00,0.0,1.90999,0.00038,403.717,0.028,0.2327,0.0019,140.001,44.999,34238.57322,1.91438,404.854,33.587,45.068,45.000,0.00,0.09,-272.72,-272.77,-4,973,-3,22.6,6.4,-16.1,22.3,6.6,-15.9,5.73,1.96,-12.8,26.8
2015-04-12 01:45:00,0.0,1.90989,0.00034,403.661,0.028,0.2374,0.0018,139.999,45.000,34241.81658,1.91438,404.819,33.558,45.068,45.000,0.00,0.09,-272.72,-272.78,-4,974,-3,22.6,6.5,-15.9,22.3,6.6,-15.8,5.73,1.96,-12.8,26.7
2015-04-12 01:46:00,0.0,1.90969,0.00036,403.663,0.035,0.2388,0.0017,139.998,44.999,34242.97562,1.91419,404.828,33.499,45.068,45.000,0.00,0.09,-272.71,-272.77,-5,975,-3,22.6,6.5,-15.8,22.3,6.7,-15.7,5.73,1.99,-12.8,26.6